Date String (YYYY-MM-DD hh:mm:ss) UTC,Instrument flags,absolute air pressure of the measurement (hPa),sample flow rate (lpm),inlet stack bypass flow (lpm),air temperature of the measurement (°C),ambient temperature measured by the external sensor (°C),aerosol sample conditioner tube jacket temperature (°C),OPC LED temperature (°C),internal box temperature (°C),relative humidity of the measurement (%),span deviation,mass concentration of particles derived from Lorenz-Mie calculation of OPC scattering (μg/m³),mass concentration of particles derived from Lorenz-Mie calculation of OPC scattering (μg/m³),mass concentration of particles derived from Lorenz-Mie calculation of OPC scattering (μg/m³)
DateTimeUTC,F1_M11,P_M11,Q1_M11,Q2_M11,T1_M11,T2_M11,T3_M11,T4_M11,T5_M11,U1_M11,ZSPAN_M11,X0_M11,X2_M11,X1_M11
2023-08-19 13:00:00,SystemResetWarning,0833.4,4.99,000.00,028.4,025.1,000.0,036.7,029.9,26.9,0000.0,0006.90,0002.85,0001.98
2023-08-19 13:01:00,SystemResetWarning,0833.4,5.00,000.00,028.3,024.0,000.0,036.6,029.6,27.1,0000.0,0007.40,0002.86,0001.97
2023-08-19 13:02:00,SystemResetWarning,0833.4,5.01,000.00,028.2,024.1,000.0,036.6,029.4,27.5,0000.0,0007.48,0002.87,0001.96
2023-08-19 13:03:00,SystemResetWarning,0833.4,5.01,000.00,028.1,024.5,000.0,036.6,029.4,28.9,0000.0,0008.07,0002.89,0001.95
2023-08-19 13:04:00,SystemResetWarning,0833.4,5.00,000.00,028.1,024.9,000.0,036.6,029.5,29.2,0000.0,0008.23,0002.85,0001.94
2023-08-19 13:05:00,SystemResetWarning,0833.4,5.00,000.00,028.1,025.3,000.0,036.6,029.6,28.9,0000.0,0008.00,0002.76,0001.92
2023-08-19 13:06:00,SystemResetWarning,0833.4,5.00,000.00,028.1,025.7,000.0,036.6,029.7,28.8,0000.0,0008.06,0002.78,0001.91
2023-08-19 13:07:00,SystemResetWarning,0833.4,5.00,000.00,028.1,026.0,000.0,036.6,029.7,28.1,0000.0,0008.30,0002.72,0001.90
2023-08-19 13:08:00,SystemResetWarning,0833.5,5.00,000.00,028.1,026.3,000.0,036.6,029.8,27.9,0000.0,0008.72,0002.65,0001.89
2023-08-19 13:09:00,SystemResetWarning,0833.4,5.00,000.00,028.2,026.5,000.0,036.7,029.9,28.0,0000.0,0008.79,0002.67,0001.88
2023-08-19 13:10:00,SystemResetWarning,0833.5,4.99,000.00,028.2,026.7,000.0,036.7,029.9,27.6,0000.0,0009.45,0002.64,0001.86
2023-08-19 13:11:00,SystemResetWarning,0833.5,5.00,000.00,028.2,026.9,000.0,036.7,030.0,27.3,0000.0,0009.35,0002.63,0001.85
2023-08-19 13:12:00,SystemResetWarning,0833.6,5.00,000.00,028.3,027.0,000.0,036.7,030.0,27.1,0000.0,0008.98,0002.59,0001.85
2023-08-19 13:13:00,SystemResetWarning,0833.6,5.00,000.00,028.3,027.1,000.0,036.7,030.1,26.9,0000.0,0008.86,0002.56,0001.84
2023-08-19 13:14:00,SystemResetWarning,0833.6,5.00,000.00,028.3,027.2,000.0,036.8,030.1,26.7,0000.0,0008.41,0002.52,0001.83
2023-08-19 13:15:00,SystemResetWarning,0833.6,5.01,000.00,028.4,027.3,000.0,036.8,030.2,26.4,0000.0,0008.14,0002.50,0001.82
2023-08-19 13:16:00,SystemResetWarning,0833.5,4.99,000.00,028.4,027.0,000.0,036.8,030.2,26.4,0000.0,0008.06,0002.54,0001.82
2023-08-19 13:17:00,SystemResetWarning,0833.6,5.00,000.00,028.4,025.3,000.0,036.7,029.8,26.1,0000.0,0009.29,0002.51,0001.82
2023-08-19 13:18:00,SystemResetWarning,0833.6,5.01,000.00,028.3,024.3,000.0,036.6,029.7,26.6,0000.0,0009.22,0002.50,0001.83
2023-08-19 13:19:00,SystemResetWarning,0833.6,5.00,000.00,028.2,024.4,000.0,036.5,029.6,26.9,0000.0,0009.43,0002.53,0001.84
2023-08-19 13:20:00,SystemResetWarning,0833.6,4.99,000.00,028.1,024.7,000.0,036.6,029.5,27.1,0000.0,0009.43,0002.53,0001.84
2023-08-19 13:21:00,SystemResetWarning,0833.7,5.00,000.00,028.1,025.1,000.0,036.6,029.6,27.2,0000.0,0008.76,0002.52,0001.85
2023-08-19 13:22:00,SystemResetWarning,0833.7,5.00,000.00,028.1,025.5,000.0,036.6,029.7,27.5,0000.0,0008.85,0002.50,0001.86
2023-08-19 13:23:00,SystemResetWarning,0833.7,4.99,000.00,028.1,025.9,000.0,036.6,029.8,27.4,0000.0,0009.03,0002.57,0001.87
2023-08-19 13:24:00,SystemResetWarning,0833.7,4.99,000.00,028.2,026.1,000.0,036.7,029.8,27.1,0000.0,0009.06,0002.57,0001.85
2023-08-19 13:25:00,SystemResetWarning,0833.7,5.00,000.00,028.2,026.4,000.0,036.7,029.9,27.3,0000.0,0008.67,0002.61,0001.86
2023-08-19 13:26:00,SystemResetWarning,0833.7,5.01,000.00,028.2,026.6,000.0,036.7,029.9,27.1,0000.0,0008.54,0002.64,0001.88
2023-08-19 13:27:00,SystemResetWarning,0833.7,5.00,000.00,028.3,026.8,000.0,036.7,030.0,27.1,0000.0,0008.48,0002.61,0001.89
2023-08-19 13:28:00,SystemResetWarning,0833.6,4.99,000.00,028.3,027.0,000.0,036.7,030.0,26.6,0000.0,0007.06,0002.60,0001.88
2023-08-19 13:29:00,SystemResetWarning,0833.6,5.00,000.00,028.3,027.1,000.0,036.7,030.1,26.6,0000.0,0006.41,0002.62,0001.87
2023-08-19 13:30:00,SystemResetWarning,0833.6,5.00,000.00,028.4,027.2,000.0,036.8,030.2,26.9,0000.0,0005.05,0002.61,0001.86
2023-08-19 13:31:00,SystemResetWarning,0833.6,5.01,000.00,028.4,027.3,000.0,036.8,030.2,26.5,0000.0,0004.94,0002.59,0001.87
2023-08-19 13:32:00,SystemResetWarning,0833.6,4.99,000.00,028.4,026.2,000.0,036.7,030.0,26.5,0000.0,0005.00,0002.62,0001.87
2023-08-19 13:33:00,SystemResetWarning,0833.6,5.00,000.00,028.4,024.7,000.0,036.6,029.8,26.9,0000.0,0004.61,0002.65,0001.87
2023-08-19 13:34:00,SystemResetWarning,0833.6,5.00,000.00,028.3,024.5,000.0,036.5,029.7,27.1,0000.0,0004.78,0002.61,0001.87
2023-08-19 13:35:00,SystemResetWarning,0833.6,5.01,000.00,028.2,024.8,000.0,036.6,029.6,27.6,0000.0,0005.40,0002.58,0001.87
2023-08-19 13:36:00,SystemResetWarning,0833.6,5.00,000.00,028.2,025.1,000.0,036.6,029.6,28.2,0000.0,0005.30,0002.57,0001.87
2023-08-19 13:37:00,SystemResetWarning,0833.5,5.00,000.00,028.2,025.5,000.0,036.6,029.7,28.5,0000.0,0005.57,0002.58,0001.86
2023-08-19 13:38:00,SystemResetWarning,0833.6,5.00,000.00,028.2,025.8,000.0,036.7,029.8,28.9,0000.0,0005.85,0002.64,0001.86
2023-08-19 13:39:00,SystemResetWarning,0833.6,5.00,000.00,028.2,026.1,000.0,036.7,029.8,28.7,0000.0,0006.01,0002.67,0001.86
2023-08-19 13:40:00,SystemResetWarning,0833.7,5.01,000.00,028.2,026.4,000.0,036.7,029.9,28.9,0000.0,0006.01,0002.62,0001.86
2023-08-19 13:41:00,SystemResetWarning,0833.7,5.00,000.00,028.2,026.6,000.0,036.7,030.0,29.0,0000.0,0006.09,0002.65,0001.87
2023-08-19 13:42:00,SystemResetWarning,0833.7,4.99,000.00,028.3,026.8,000.0,036.7,030.0,29.0,0000.0,0006.07,0002.63,0001.86
2023-08-19 13:43:00,SystemResetWarning,0833.7,5.00,000.00,028.3,027.0,000.0,036.7,030.1,29.2,0000.0,0006.14,0002.61,0001.84
2023-08-19 13:44:00,SystemResetWarning,0833.7,5.00,000.00,028.4,027.1,000.0,036.8,030.1,28.9,0000.0,0006.30,0002.54,0001.82
2023-08-19 13:45:00,SystemResetWarning,0833.7,5.00,000.00,028.4,026.6,000.0,036.7,030.1,28.3,0000.0,0005.83,0002.45,0001.80
2023-08-19 13:46:00,SystemResetWarning,0833.7,5.00,000.00,028.3,025.1,000.0,036.6,029.8,28.6,0000.0,0004.83,0002.42,0001.79
2023-08-19 13:47:00,SystemResetWarning,0833.7,5.01,000.00,028.3,024.4,000.0,036.6,029.6,29.0,0000.0,0004.88,0002.42,0001.79
2023-08-19 13:48:00,SystemResetWarning,0833.7,5.01,000.00,028.2,024.6,000.0,036.6,029.6,29.4,0000.0,0004.39,0002.37,0001.79
2023-08-19 13:49:00,SystemResetWarning,0833.7,5.00,000.00,028.1,025.0,000.0,036.6,029.6,28.7,0000.0,0004.23,0002.35,0001.80
2023-08-19 13:50:00,SystemResetWarning,0833.7,5.00,000.00,028.1,025.3,000.0,036.6,029.6,28.0,0000.0,0004.22,0002.31,0001.80
2023-08-19 13:51:00,SystemResetWarning,0833.8,5.01,000.00,028.1,025.7,000.0,036.6,029.7,28.0,0000.0,0004.21,0002.35,0001.80
2023-08-19 13:52:00,SystemResetWarning,0833.8,5.00,000.00,028.1,026.0,000.0,036.6,029.8,28.7,0000.0,0004.16,0002.29,0001.78
2023-08-19 13:53:00,SystemResetWarning,0833.8,5.00,000.00,028.2,026.3,000.0,036.7,029.9,30.5,0000.0,0004.27,0002.30,0001.78
2023-08-19 13:54:00,SystemResetWarning,0833.8,5.00,000.00,028.2,026.5,000.0,036.7,030.0,31.2,0000.0,0004.24,0002.33,0001.80
2023-08-19 13:55:00,SystemResetWarning,0833.8,5.00,000.00,028.2,026.7,000.0,036.7,030.0,31.3,0000.0,0004.04,0002.36,0001.80
2023-08-19 13:56:00,SystemResetWarning,0833.8,5.01,000.00,028.3,026.9,000.0,036.7,030.0,31.0,0000.0,0004.25,0002.43,0001.81
2023-08-19 13:57:00,SystemResetWarning,0833.9,4.99,000.00,028.3,027.1,000.0,036.7,030.1,28.6,0000.0,0004.31,0002.46,0001.82
2023-08-19 13:58:00,SystemResetWarning,0833.9,5.00,000.00,028.4,027.0,000.0,036.7,030.1,29.3,0000.0,0004.38,0002.44,0001.82
2023-08-19 13:59:00,SystemResetWarning,0833.9,4.99,000.00,028.4,025.6,000.0,036.6,029.9,29.4,0000.0,0004.33,0002.43,0001.80
